Location: Peterborough
(44.3091°N, 78.3197°W)
Time: 00:44:49
(UTC-04:00)

SR - Pass Details

Date: 30 March 2023
Orbit: 581 x 867 km, 66.7° (Epoch: 02 June)

Event Time Altitude Azimuth Distance (km) Brightness Sun altitude
Rises 11:49:17 0° 317° (NW) 2,827 ? 45.1°
Reaches altitude 10° 11:51:43 10° 306° (NW) 1,943 ? 45.3°
Maximum altitude 11:55:25 28° 247° (WSW) 1,174 ? 45.7°
Drops below altitude 10° 11:59:17 10° 189° (S) 2,036 ? 46.0°
Sets 12:01:53 0° 178° (S) 2,990 ? 46.2°
